Location: Skalnate Pleso
(49.1889°N, 20.2450°E)
Time: 00:52:10
(UTC+01:00)

Cosmos 1408 Rocket - Pass Details

Date: 19 November 2019
Orbit: 602 x 630 km, 82.6° (Epoch: 14 December)

Event Time Altitude Azimuth Distance (km) Brightness Sun altitude
Rises 04:44:02 0° 183° (S) 2,844 7.0 -21.0°
Reaches altitude 10° 04:46:14 10° 181° (S) 1,948 6.2 -20.7°
Maximum altitude 04:50:31 73° 97° (E) 640 3.7 -20.0°
Drops below altitude 10° 04:54:53 10° 13° (NNE) 1,977 6.2 -19.3°
Sets 04:57:07 0° 12° (NNE) 2,891 7.0 -18.9°
